Year,Month,Day,Hour,Minute,Value (Times are PST for temperature in C)
2016,08,27,00,00,20.40
2016,08,27,00,01,20.40
2016,08,27,00,02,20.40
2016,08,27,00,03,20.40
2016,08,27,00,04,20.30
2016,08,27,00,05,20.30
2016,08,27,00,06,20.30
2016,08,27,00,07,20.30
2016,08,27,00,08,20.30
2016,08,27,00,09,20.20
2016,08,27,00,10,20.20
2016,08,27,00,11,20.20
2016,08,27,00,12,20.20
2016,08,27,00,13,20.20
2016,08,27,00,14,20.10
2016,08,27,00,15,20.10
2016,08,27,00,16,20.10
2016,08,27,00,17,20.10
2016,08,27,00,18,20.00
2016,08,27,00,19,20.00
2016,08,27,00,20,20.00
2016,08,27,00,21,19.90
2016,08,27,00,22,19.90
2016,08,27,00,23,19.90
2016,08,27,00,24,19.90
2016,08,27,00,25,19.90
2016,08,27,00,26,19.80
2016,08,27,00,27,19.80
2016,08,27,00,28,19.80
2016,08,27,00,29,19.80
2016,08,27,00,30,19.80
2016,08,27,00,31,19.70
2016,08,27,00,32,19.70
2016,08,27,00,33,19.70
2016,08,27,00,34,19.70
2016,08,27,00,35,19.70
2016,08,27,00,36,19.60
2016,08,27,00,37,19.60
2016,08,27,00,38,19.60
2016,08,27,00,39,19.60
2016,08,27,00,40,19.50
2016,08,27,00,41,19.50
2016,08,27,00,42,19.50
2016,08,27,00,43,19.50
2016,08,27,00,44,19.40
2016,08,27,00,45,19.40
2016,08,27,00,46,19.40
2016,08,27,00,47,19.40
2016,08,27,00,48,19.40
2016,08,27,00,49,19.40
2016,08,27,00,50,19.40
2016,08,27,00,51,19.40
2016,08,27,00,52,19.40
2016,08,27,00,53,19.30
2016,08,27,00,54,19.30
2016,08,27,00,55,19.30
2016,08,27,00,56,19.30
2016,08,27,00,57,19.30
2016,08,27,00,58,19.30
2016,08,27,00,59,19.30
2016,08,27,01,00,19.30
2016,08,27,01,01,19.30
2016,08,27,01,02,19.30
2016,08,27,01,03,19.30
2016,08,27,01,04,19.30
2016,08,27,01,05,19.30
2016,08,27,01,06,19.30
2016,08,27,01,07,19.30
2016,08,27,01,08,19.20
2016,08,27,01,09,19.20
2016,08,27,01,10,19.20
2016,08,27,01,11,19.20
2016,08,27,01,12,19.20
2016,08,27,01,13,19.20
2016,08,27,01,14,19.20
2016,08,27,01,15,19.20
2016,08,27,01,16,19.20
2016,08,27,01,17,19.20
2016,08,27,01,18,19.20
2016,08,27,01,19,19.20
2016,08,27,01,20,19.20
2016,08,27,01,21,19.20
2016,08,27,01,22,19.10
2016,08,27,01,23,19.10
2016,08,27,01,24,19.10
2016,08,27,01,25,19.10
2016,08,27,01,26,19.10
2016,08,27,01,27,19.10
2016,08,27,01,28,19.10
2016,08,27,01,29,19.10
2016,08,27,01,30,19.10
2016,08,27,01,31,19.00
2016,08,27,01,32,19.00
2016,08,27,01,33,19.00
2016,08,27,01,34,18.90
2016,08,27,01,35,18.90
2016,08,27,01,36,18.90
2016,08,27,01,37,18.90
2016,08,27,01,38,18.90
2016,08,27,01,39,18.90
2016,08,27,01,40,18.90
2016,08,27,01,41,18.80
2016,08,27,01,42,18.80
2016,08,27,01,43,18.80
2016,08,27,01,44,18.80
2016,08,27,01,45,18.80
2016,08,27,01,46,18.80
2016,08,27,01,47,18.70
2016,08,27,01,48,18.70
2016,08,27,01,49,18.70
2016,08,27,01,50,18.70
2016,08,27,01,51,18.70
2016,08,27,01,52,18.70
2016,08,27,01,53,18.60
2016,08,27,01,54,18.60
2016,08,27,01,55,18.60
2016,08,27,01,56,18.60
2016,08,27,01,57,18.60
2016,08,27,01,58,18.60
2016,08,27,01,59,18.60
2016,08,27,02,00,18.50
2016,08,27,02,01,18.50
2016,08,27,02,02,18.50
2016,08,27,02,03,18.50
2016,08,27,02,04,18.40
2016,08,27,02,05,18.40
2016,08,27,02,06,18.40
2016,08,27,02,07,18.40
2016,08,27,02,08,18.40
2016,08,27,02,09,18.40
2016,08,27,02,10,18.40
2016,08,27,02,11,18.40
2016,08,27,02,12,18.40
2016,08,27,02,13,18.40
2016,08,27,02,14,18.40
2016,08,27,02,15,18.40
2016,08,27,02,16,18.40
2016,08,27,02,17,18.40
2016,08,27,02,18,18.40
2016,08,27,02,19,18.40
2016,08,27,02,20,18.40
2016,08,27,02,21,18.40
2016,08,27,02,22,18.40
2016,08,27,02,23,18.40
2016,08,27,02,24,18.40
2016,08,27,02,25,18.40
2016,08,27,02,26,18.40
2016,08,27,02,27,18.40
2016,08,27,02,28,18.30
2016,08,27,02,29,18.30
2016,08,27,02,30,18.30
2016,08,27,02,31,18.30
2016,08,27,02,32,18.30
2016,08,27,02,33,18.30
2016,08,27,02,34,18.20
2016,08,27,02,35,18.20
2016,08,27,02,36,18.20
2016,08,27,02,37,18.20
2016,08,27,02,38,18.10
2016,08,27,02,39,18.10
2016,08,27,02,40,18.10
2016,08,27,02,41,18.10
2016,08,27,02,42,18.00
2016,08,27,02,43,18.00
2016,08,27,02,44,18.00
2016,08,27,02,45,18.00
2016,08,27,02,46,17.90
2016,08,27,02,47,17.90
2016,08,27,02,48,17.90
2016,08,27,02,49,17.90
2016,08,27,02,50,17.90
2016,08,27,02,51,17.90
2016,08,27,02,52,17.90
2016,08,27,02,53,17.80
2016,08,27,02,54,17.80
2016,08,27,02,55,17.80
2016,08,27,02,56,17.80
2016,08,27,02,57,17.80
2016,08,27,02,58,17.80
2016,08,27,02,59,17.80
2016,08,27,03,00,17.80
2016,08,27,03,01,17.80
2016,08,27,03,02,17.70
2016,08,27,03,03,17.70
2016,08,27,03,04,17.70
2016,08,27,03,05,17.70
2016,08,27,03,06,17.70
2016,08,27,03,07,17.70
2016,08,27,03,08,17.70
2016,08,27,03,09,17.70
2016,08,27,03,10,17.70
2016,08,27,03,11,17.70
2016,08,27,03,12,17.70
2016,08,27,03,13,17.70
2016,08,27,03,14,17.70
2016,08,27,03,15,17.70
2016,08,27,03,16,17.70
2016,08,27,03,17,17.70
2016,08,27,03,18,17.70
2016,08,27,03,19,17.70
2016,08,27,03,20,17.70
2016,08,27,03,21,17.60
2016,08,27,03,22,17.60
2016,08,27,03,23,17.60
2016,08,27,03,24,17.60
2016,08,27,03,25,17.60
2016,08,27,03,26,17.60
2016,08,27,03,27,17.60
2016,08,27,03,28,17.60
2016,08,27,03,29,17.60
2016,08,27,03,30,17.50
2016,08,27,03,31,17.50
2016,08,27,03,32,17.50
2016,08,27,03,33,17.50
2016,08,27,03,34,17.40
2016,08,27,03,35,17.40
2016,08,27,03,36,17.40
2016,08,27,03,37,17.40
2016,08,27,03,38,17.40
2016,08,27,03,39,17.40
2016,08,27,03,40,17.40
2016,08,27,03,41,17.40
2016,08,27,03,42,17.30
2016,08,27,03,43,17.30
2016,08,27,03,44,17.30
2016,08,27,03,45,17.30
2016,08,27,03,46,17.30
2016,08,27,03,47,17.30
2016,08,27,03,48,17.30
2016,08,27,03,49,17.30
2016,08,27,03,50,17.20
2016,08,27,03,51,17.20
2016,08,27,03,52,17.20
2016,08,27,03,53,17.20
2016,08,27,03,54,17.20
2016,08,27,03,55,17.20
2016,08,27,03,56,17.20
2016,08,27,03,57,17.20
2016,08,27,03,58,17.20
2016,08,27,03,59,17.20
2016,08,27,04,00,17.20
2016,08,27,04,01,17.20
2016,08,27,04,02,17.20
2016,08,27,04,03,17.20
2016,08,27,04,04,17.20
2016,08,27,04,05,17.20
2016,08,27,04,06,17.20
2016,08,27,04,07,17.20
2016,08,27,04,08,17.20
2016,08,27,04,09,17.20
2016,08,27,04,10,17.20
2016,08,27,04,11,17.20
2016,08,27,04,12,17.20
2016,08,27,04,13,17.20
2016,08,27,04,14,17.20
2016,08,27,04,15,17.20
2016,08,27,04,16,17.20
2016,08,27,04,17,17.10
2016,08,27,04,18,17.10
2016,08,27,04,19,17.10
2016,08,27,04,20,17.10
2016,08,27,04,21,17.10
2016,08,27,04,22,17.10
2016,08,27,04,23,17.10
2016,08,27,04,24,17.00
2016,08,27,04,25,17.00
2016,08,27,04,26,17.00
2016,08,27,04,27,17.00
2016,08,27,04,28,17.00
2016,08,27,04,29,16.90
2016,08,27,04,30,16.90
2016,08,27,04,31,16.90
2016,08,27,04,32,16.90
2016,08,27,04,33,16.90
2016,08,27,04,34,16.90
2016,08,27,04,35,16.90
2016,08,27,04,36,16.90
2016,08,27,04,37,16.90
2016,08,27,04,38,16.90
2016,08,27,04,39,16.90
2016,08,27,04,40,16.80
2016,08,27,04,41,16.80
2016,08,27,04,42,16.80
2016,08,27,04,43,16.80
2016,08,27,04,44,16.80
2016,08,27,04,45,16.80
2016,08,27,04,46,16.80
2016,08,27,04,47,16.80
2016,08,27,04,48,16.80
2016,08,27,04,49,16.80
2016,08,27,04,50,16.80
2016,08,27,04,51,16.80
2016,08,27,04,52,16.80
2016,08,27,04,53,16.80
2016,08,27,04,54,16.80
2016,08,27,04,55,16.80
2016,08,27,04,56,16.80
2016,08,27,04,57,16.80
2016,08,27,04,58,16.80
2016,08,27,04,59,16.80
2016,08,27,05,00,16.80
2016,08,27,05,01,16.80
2016,08,27,05,02,16.80
2016,08,27,05,03,16.80
2016,08,27,05,04,16.80
2016,08,27,05,05,16.80
2016,08,27,05,06,16.80
2016,08,27,05,07,16.80
2016,08,27,05,08,16.80
2016,08,27,05,09,16.80
2016,08,27,05,10,16.80
2016,08,27,05,11,16.70
2016,08,27,05,12,16.80
2016,08,27,05,13,16.80
2016,08,27,05,14,16.70
2016,08,27,05,15,16.70
2016,08,27,05,16,16.70
2016,08,27,05,17,16.70
2016,08,27,05,18,16.70
2016,08,27,05,19,16.70
2016,08,27,05,20,16.70
2016,08,27,05,21,16.70
2016,08,27,05,22,16.70
2016,08,27,05,23,16.70
2016,08,27,05,24,16.70
2016,08,27,05,25,16.70
2016,08,27,05,26,16.70
2016,08,27,05,27,16.70
2016,08,27,05,28,16.70
2016,08,27,05,29,16.60
2016,08,27,05,30,16.60
2016,08,27,05,31,16.60
2016,08,27,05,32,16.60
2016,08,27,05,33,16.60
2016,08,27,05,34,16.60
2016,08,27,05,35,16.60
2016,08,27,05,36,16.50
2016,08,27,05,37,16.50
2016,08,27,05,38,16.50
2016,08,27,05,39,16.50
2016,08,27,05,40,16.40
2016,08,27,05,41,16.40
2016,08,27,05,42,16.40
2016,08,27,05,43,16.40
2016,08,27,05,44,16.40
2016,08,27,05,45,16.40
2016,08,27,05,46,16.40
2016,08,27,05,47,16.30
2016,08,27,05,48,16.30
2016,08,27,05,49,16.30
2016,08,27,05,50,16.30
2016,08,27,05,51,16.30
2016,08,27,05,52,16.30
2016,08,27,05,53,16.30
2016,08,27,05,54,16.30
2016,08,27,05,55,16.30
2016,08,27,05,56,16.20
2016,08,27,05,57,16.20
2016,08,27,05,58,16.20
2016,08,27,05,59,16.20
2016,08,27,06,00,16.20
2016,08,27,06,01,16.20
2016,08,27,06,02,16.20
2016,08,27,06,03,16.20
2016,08,27,06,04,16.20
2016,08,27,06,05,16.20
2016,08,27,06,06,16.20
2016,08,27,06,07,16.20
2016,08,27,06,08,16.20
2016,08,27,06,09,16.10
2016,08,27,06,10,16.10
2016,08,27,06,11,16.10
2016,08,27,06,12,16.10
2016,08,27,06,13,16.10
2016,08,27,06,14,16.10
2016,08,27,06,15,16.10
2016,08,27,06,16,16.10
2016,08,27,06,17,16.10
2016,08,27,06,18,16.10
2016,08,27,06,19,16.10
2016,08,27,06,20,16.10
2016,08,27,06,21,16.10
2016,08,27,06,22,16.10
2016,08,27,06,23,16.10
2016,08,27,06,24,16.10
2016,08,27,06,25,16.10
2016,08,27,06,26,16.00
2016,08,27,06,27,16.00
2016,08,27,06,28,16.00
2016,08,27,06,29,16.00
2016,08,27,06,30,16.00
2016,08,27,06,31,16.00
2016,08,27,06,32,16.00
2016,08,27,06,33,16.00
2016,08,27,06,34,16.00
2016,08,27,06,35,16.00
2016,08,27,06,36,16.00
2016,08,27,06,37,15.90
2016,08,27,06,38,15.90
2016,08,27,06,39,15.90
2016,08,27,06,40,15.90
2016,08,27,06,41,15.90
2016,08,27,06,42,15.90
2016,08,27,06,43,15.90
2016,08,27,06,44,15.90
2016,08,27,06,45,15.90
2016,08,27,06,46,15.90
2016,08,27,06,47,15.90
2016,08,27,06,48,15.90
2016,08,27,06,49,15.90
2016,08,27,06,50,15.90
2016,08,27,06,51,15.90
2016,08,27,06,52,15.90
2016,08,27,06,53,15.90
2016,08,27,06,54,15.90
2016,08,27,06,55,15.90
2016,08,27,06,56,15.90
2016,08,27,06,57,15.90
2016,08,27,06,58,15.90
2016,08,27,06,59,15.90
2016,08,27,07,00,15.90
2016,08,27,07,01,15.90
2016,08,27,07,02,15.90
2016,08,27,07,03,15.90
2016,08,27,07,04,15.90
2016,08,27,07,05,15.90
2016,08,27,07,06,15.90
2016,08,27,07,07,15.90
2016,08,27,07,08,15.80
2016,08,27,07,09,15.80
2016,08,27,07,10,15.80
2016,08,27,07,11,15.80
2016,08,27,07,12,15.80
2016,08,27,07,13,15.80
2016,08,27,07,14,15.80
2016,08,27,07,15,15.80
2016,08,27,07,16,15.80
2016,08,27,07,17,15.80
2016,08,27,07,18,15.80
2016,08,27,07,19,15.80
2016,08,27,07,20,15.80
2016,08,27,07,21,15.80
2016,08,27,07,22,15.80
2016,08,27,07,23,15.80
2016,08,27,07,24,15.80
2016,08,27,07,25,15.80
2016,08,27,07,26,15.80
2016,08,27,07,27,15.80
2016,08,27,07,28,15.80
2016,08,27,07,29,15.80
2016,08,27,07,30,15.80
2016,08,27,07,31,15.80
2016,08,27,07,32,15.80
2016,08,27,07,33,15.80
2016,08,27,07,34,15.80
2016,08,27,07,35,15.80
2016,08,27,07,36,15.80
2016,08,27,07,37,15.70
2016,08,27,07,38,15.80
2016,08,27,07,39,15.70
2016,08,27,07,40,15.70
2016,08,27,07,41,15.70
2016,08,27,07,42,15.70
2016,08,27,07,43,15.70
2016,08,27,07,44,15.70
2016,08,27,07,45,15.70
2016,08,27,07,46,15.70
2016,08,27,07,47,15.80
2016,08,27,07,48,15.80
2016,08,27,07,49,15.80
2016,08,27,07,50,15.80
2016,08,27,07,51,15.80
2016,08,27,07,52,15.80
2016,08,27,07,53,15.80
2016,08,27,07,54,15.80
2016,08,27,07,55,15.80
2016,08,27,07,56,15.80
2016,08,27,07,57,15.80
2016,08,27,07,58,15.80
2016,08,27,07,59,15.80
2016,08,27,08,00,15.80
2016,08,27,08,01,15.80
2016,08,27,08,02,15.80
2016,08,27,08,03,15.80
2016,08,27,08,04,15.80
2016,08,27,08,05,15.90
2016,08,27,08,06,15.90
2016,08,27,08,07,15.90
2016,08,27,08,08,15.90
2016,08,27,08,09,15.90
2016,08,27,08,10,15.90
2016,08,27,08,11,15.90
2016,08,27,08,12,15.90
2016,08,27,08,13,16.00
2016,08,27,08,14,16.00
2016,08,27,08,15,16.00
2016,08,27,08,16,16.00
2016,08,27,08,17,16.10
2016,08,27,08,18,16.10
2016,08,27,08,19,16.10
2016,08,27,08,20,16.10
2016,08,27,08,21,16.10
2016,08,27,08,22,16.20
2016,08,27,08,23,16.20
2016,08,27,08,24,16.20
2016,08,27,08,25,16.20
2016,08,27,08,26,16.20
2016,08,27,08,27,16.30
2016,08,27,08,28,16.30
2016,08,27,08,29,16.30
2016,08,27,08,30,16.30
2016,08,27,08,31,16.40
2016,08,27,08,32,16.40
2016,08,27,08,33,16.50
2016,08,27,08,34,16.60
2016,08,27,08,35,16.60
2016,08,27,08,36,16.70
2016,08,27,08,37,16.70
2016,08,27,08,38,16.80
2016,08,27,08,39,16.80
2016,08,27,08,40,16.90
2016,08,27,08,41,16.90
2016,08,27,08,42,16.90
2016,08,27,08,43,17.00
2016,08,27,08,44,17.10
2016,08,27,08,45,17.10
2016,08,27,08,46,17.20
2016,08,27,08,47,17.20
2016,08,27,08,48,17.30
2016,08,27,08,49,17.30
2016,08,27,08,50,17.30
2016,08,27,08,51,17.40
2016,08,27,08,52,17.40
2016,08,27,08,53,17.50
2016,08,27,08,54,17.60
2016,08,27,08,55,17.60
2016,08,27,08,56,17.70
2016,08,27,08,57,17.70
2016,08,27,08,58,17.80
2016,08,27,08,59,17.80
2016,08,27,09,00,17.80
2016,08,27,09,01,17.90
2016,08,27,09,02,17.90
2016,08,27,09,03,18.00
2016,08,27,09,04,18.10
2016,08,27,09,05,18.10
2016,08,27,09,06,18.20
2016,08,27,09,07,18.20
2016,08,27,09,08,18.30
2016,08,27,09,09,18.30
2016,08,27,09,10,18.30
2016,08,27,09,11,18.40
2016,08,27,09,12,18.40
2016,08,27,09,13,18.50
2016,08,27,09,14,18.50
2016,08,27,09,15,18.60
2016,08,27,09,16,18.60
2016,08,27,09,17,18.60
2016,08,27,09,18,18.60
2016,08,27,09,19,18.70
2016,08,27,09,20,18.70
2016,08,27,09,21,18.70
2016,08,27,09,22,18.80
2016,08,27,09,23,18.80
2016,08,27,09,24,18.80
2016,08,27,09,25,18.90
2016,08,27,09,26,18.90
2016,08,27,09,27,18.90
2016,08,27,09,28,18.90
2016,08,27,09,29,19.00
2016,08,27,09,30,19.00
2016,08,27,09,31,19.00
2016,08,27,09,32,19.10
2016,08,27,09,33,19.10
2016,08,27,09,34,19.10
2016,08,27,09,35,19.20
2016,08,27,09,36,19.20
2016,08,27,09,37,19.20
2016,08,27,09,38,19.30
2016,08,27,09,39,19.30
2016,08,27,09,40,19.30
2016,08,27,09,41,19.30
2016,08,27,09,42,19.40
2016,08,27,09,43,19.40
2016,08,27,09,44,19.50
2016,08,27,09,45,19.50
2016,08,27,09,46,19.60
2016,08,27,09,47,19.60
2016,08,27,09,48,19.70
2016,08,27,09,49,19.70
2016,08,27,09,50,19.80
2016,08,27,09,51,19.80
2016,08,27,09,52,19.90
2016,08,27,09,53,19.90
2016,08,27,09,54,20.00
2016,08,27,09,55,20.10
2016,08,27,09,56,20.20
2016,08,27,09,57,20.30
2016,08,27,09,58,20.40
2016,08,27,09,59,20.50
2016,08,27,10,00,20.50
2016,08,27,10,01,20.60
2016,08,27,10,02,20.70
2016,08,27,10,03,20.80
2016,08,27,10,04,20.90
2016,08,27,10,05,21.00
2016,08,27,10,06,21.10
2016,08,27,10,07,21.20
2016,08,27,10,08,21.30
2016,08,27,10,09,21.30
2016,08,27,10,10,21.40
2016,08,27,10,11,21.40
2016,08,27,10,12,21.50
2016,08,27,10,13,21.50
2016,08,27,10,14,21.60
2016,08,27,10,15,21.60
2016,08,27,10,16,21.60
2016,08,27,10,17,21.70
2016,08,27,10,18,21.70
2016,08,27,10,19,21.70
2016,08,27,10,20,21.70
2016,08,27,10,21,21.70
2016,08,27,10,22,21.70
2016,08,27,10,23,21.70
2016,08,27,10,24,21.70
2016,08,27,10,25,21.70
2016,08,27,10,26,21.70
2016,08,27,10,27,21.70
2016,08,27,10,28,21.70
2016,08,27,10,29,21.70
2016,08,27,10,30,21.70
2016,08,27,10,31,21.70
2016,08,27,10,32,21.80
2016,08,27,10,33,21.80
2016,08,27,10,34,21.80
2016,08,27,10,35,21.80
2016,08,27,10,36,21.80
2016,08,27,10,37,21.80
2016,08,27,10,38,21.80
2016,08,27,10,39,21.80
2016,08,27,10,40,21.80
2016,08,27,10,41,21.80
2016,08,27,10,42,21.80
2016,08,27,10,43,21.80
2016,08,27,10,44,21.70
2016,08,27,10,45,21.70
2016,08,27,10,46,21.70
2016,08,27,10,47,21.70
2016,08,27,10,48,21.70
2016,08,27,10,49,21.60
2016,08,27,10,50,21.60
2016,08,27,10,51,21.60
2016,08,27,10,52,21.60
2016,08,27,10,53,21.70
2016,08,27,10,54,21.70
2016,08,27,10,55,21.70
2016,08,27,10,56,21.70
2016,08,27,10,57,21.70
2016,08,27,10,58,21.70
2016,08,27,10,59,21.70
2016,08,27,11,00,21.70
2016,08,27,11,01,21.70
2016,08,27,11,02,21.70
2016,08,27,11,03,21.70
2016,08,27,11,04,21.70
2016,08,27,11,05,21.70
2016,08,27,11,06,21.70
2016,08,27,11,07,21.70
2016,08,27,11,08,21.70
2016,08,27,11,09,21.80
2016,08,27,11,10,21.80
2016,08,27,11,11,21.80
2016,08,27,11,12,21.80
2016,08,27,11,13,21.80
2016,08,27,11,14,21.80
2016,08,27,11,15,21.80
2016,08,27,11,16,21.80
2016,08,27,11,17,21.80
2016,08,27,11,18,21.80
2016,08,27,11,19,21.90
2016,08,27,11,20,21.90
2016,08,27,11,21,21.90
2016,08,27,11,22,21.90
2016,08,27,11,23,22.00
2016,08,27,11,24,22.00
2016,08,27,11,25,22.10
2016,08,27,11,26,22.10
2016,08,27,11,27,22.10
2016,08,27,11,28,22.10
2016,08,27,11,29,22.20
2016,08,27,11,30,22.20
2016,08,27,11,31,22.20
2016,08,27,11,32,22.20
2016,08,27,11,33,22.30
2016,08,27,11,34,22.30
2016,08,27,11,35,22.30
2016,08,27,11,36,22.30
2016,08,27,11,37,22.30
2016,08,27,11,38,22.40
2016,08,27,11,39,22.40
2016,08,27,11,40,22.40
2016,08,27,11,41,22.40
2016,08,27,11,42,22.40
2016,08,27,11,43,22.40
2016,08,27,11,44,22.40
2016,08,27,11,45,22.50
2016,08,27,11,46,22.50
2016,08,27,11,47,22.60
2016,08,27,11,48,22.60
2016,08,27,11,49,22.70
2016,08,27,11,50,22.70
2016,08,27,11,51,22.70
2016,08,27,11,52,22.70
2016,08,27,11,53,22.70
2016,08,27,11,54,22.70
2016,08,27,11,55,22.70
2016,08,27,11,56,22.60
2016,08,27,11,57,22.60
2016,08,27,11,58,22.60
2016,08,27,11,59,22.50
2016,08,27,12,00,22.50
2016,08,27,12,01,22.40
2016,08,27,12,02,22.40
2016,08,27,12,03,22.40
2016,08,27,12,04,22.40
2016,08,27,12,05,22.40
2016,08,27,12,06,22.40
2016,08,27,12,07,22.30
2016,08,27,12,08,22.30
2016,08,27,12,09,22.30
2016,08,27,12,10,22.30
2016,08,27,12,11,22.30
2016,08,27,12,12,22.30
2016,08,27,12,13,22.30
2016,08,27,12,14,22.20
2016,08,27,12,15,22.20
2016,08,27,12,16,22.20
2016,08,27,12,17,22.20
2016,08,27,12,18,22.20
2016,08,27,12,19,22.20
2016,08,27,12,20,22.20
2016,08,27,12,21,22.20
2016,08,27,12,22,22.10
2016,08,27,12,23,22.20
2016,08,27,12,24,22.20
2016,08,27,12,25,22.20
2016,08,27,12,26,22.20
2016,08,27,12,27,22.20
2016,08,27,12,28,22.20
2016,08,27,12,29,22.20
2016,08,27,12,30,22.20
2016,08,27,12,31,22.20
2016,08,27,12,32,22.20
2016,08,27,12,33,22.20
2016,08,27,12,34,22.20
2016,08,27,12,35,22.10
2016,08,27,12,36,22.10
2016,08,27,12,37,22.10
2016,08,27,12,38,22.10
2016,08,27,12,39,22.10
2016,08,27,12,40,22.20
2016,08,27,12,41,22.20
2016,08,27,12,42,22.30
2016,08,27,12,43,22.40
2016,08,27,12,44,22.40
2016,08,27,12,45,22.50
2016,08,27,12,46,22.50
2016,08,27,12,47,22.60
2016,08,27,12,48,22.60
2016,08,27,12,49,22.60
2016,08,27,12,50,22.60
2016,08,27,12,51,22.60
2016,08,27,12,52,22.60
2016,08,27,12,53,22.50
2016,08,27,12,54,22.50
2016,08,27,12,55,22.40
2016,08,27,12,56,22.40
2016,08,27,12,57,22.30
2016,08,27,12,58,22.30
2016,08,27,12,59,22.30
2016,08,27,13,00,22.20
2016,08,27,13,01,22.20
2016,08,27,13,02,22.20
2016,08,27,13,03,22.20
2016,08,27,13,04,22.20
2016,08,27,13,05,22.20
2016,08,27,13,06,22.20
2016,08,27,13,07,22.20
2016,08,27,13,08,22.20
2016,08,27,13,09,22.30
2016,08,27,13,10,22.30
2016,08,27,13,11,22.30
2016,08,27,13,12,22.30
2016,08,27,13,13,22.30
2016,08,27,13,14,22.20
2016,08,27,13,15,22.20
2016,08,27,13,16,22.20
2016,08,27,13,17,22.20
2016,08,27,13,18,22.20
2016,08,27,13,19,22.20
2016,08,27,13,20,22.20
2016,08,27,13,21,22.20
2016,08,27,13,22,22.20
2016,08,27,13,23,22.20
2016,08,27,13,24,22.20
2016,08,27,13,25,22.20
2016,08,27,13,26,22.30
2016,08,27,13,27,22.30
2016,08,27,13,28,22.30
2016,08,27,13,29,22.30
2016,08,27,13,30,22.40
2016,08,27,13,31,22.40
2016,08,27,13,32,22.40
2016,08,27,13,33,22.40
2016,08,27,13,34,22.40
2016,08,27,13,35,22.30
2016,08,27,13,36,22.30
2016,08,27,13,37,22.20
2016,08,27,13,38,22.20
2016,08,27,13,39,22.10
2016,08,27,13,40,22.00
2016,08,27,13,41,22.00
2016,08,27,13,42,21.90
2016,08,27,13,43,21.80
2016,08,27,13,44,21.80
2016,08,27,13,45,21.80
2016,08,27,13,46,21.80
2016,08,27,13,47,21.80
2016,08,27,13,48,21.80
2016,08,27,13,49,21.80
2016,08,27,13,50,21.90
2016,08,27,13,51,21.90
2016,08,27,13,52,22.00
2016,08,27,13,53,22.00
2016,08,27,13,54,22.10
2016,08,27,13,55,22.10
2016,08,27,13,56,22.20
2016,08,27,13,57,22.20
2016,08,27,13,58,22.20
2016,08,27,13,59,22.20
2016,08,27,14,00,22.20
2016,08,27,14,01,22.10
2016,08,27,14,02,22.10
2016,08,27,14,03,22.10
2016,08,27,14,04,22.00
2016,08,27,14,05,22.00
2016,08,27,14,06,22.00
2016,08,27,14,07,22.00
2016,08,27,14,08,22.00
2016,08,27,14,09,22.00
2016,08,27,14,10,22.00
2016,08,27,14,11,22.10
2016,08,27,14,12,22.20
2016,08,27,14,13,22.20
2016,08,27,14,14,22.30
2016,08,27,14,15,22.30
2016,08,27,14,16,22.40
2016,08,27,14,17,22.50
2016,08,27,14,18,22.60
2016,08,27,14,19,22.60
2016,08,27,14,20,22.60
2016,08,27,14,21,22.60
2016,08,27,14,22,22.60
2016,08,27,14,23,22.50
2016,08,27,14,24,22.50
2016,08,27,14,25,22.40
2016,08,27,14,26,22.40
2016,08,27,14,27,22.30
2016,08,27,14,28,22.20
2016,08,27,14,29,22.20
2016,08,27,14,30,22.10
2016,08,27,14,31,22.10
2016,08,27,14,32,22.00
2016,08,27,14,33,22.00
2016,08,27,14,34,21.90
2016,08,27,14,35,21.90
2016,08,27,14,36,21.80
2016,08,27,14,37,21.80
2016,08,27,14,38,21.80
2016,08,27,14,39,21.80
2016,08,27,14,40,21.80
2016,08,27,14,41,21.80
2016,08,27,14,42,21.80
2016,08,27,14,43,21.80
2016,08,27,14,44,21.80
2016,08,27,14,45,21.80
2016,08,27,14,46,21.90
2016,08,27,14,47,21.90
2016,08,27,14,48,21.90
2016,08,27,14,49,22.00
2016,08,27,14,50,22.10
2016,08,27,14,51,22.10
2016,08,27,14,52,22.20
2016,08,27,14,53,22.20
2016,08,27,14,54,22.20
2016,08,27,14,55,22.20
2016,08,27,14,56,22.30
2016,08,27,14,57,22.30
2016,08,27,14,58,22.30
2016,08,27,14,59,22.40
2016,08,27,15,00,22.40
2016,08,27,15,01,22.40
2016,08,27,15,02,22.40
2016,08,27,15,03,22.40
2016,08,27,15,04,22.40
2016,08,27,15,05,22.40
2016,08,27,15,06,22.40
2016,08,27,15,07,22.40
2016,08,27,15,08,22.40
2016,08,27,15,09,22.40
2016,08,27,15,10,22.40
2016,08,27,15,11,22.40
2016,08,27,15,12,22.40
2016,08,27,15,13,22.40
2016,08,27,15,14,22.40
2016,08,27,15,15,22.40
2016,08,27,15,16,22.40
2016,08,27,15,17,22.40
2016,08,27,15,18,22.50
2016,08,27,15,19,22.50
2016,08,27,15,20,22.50
2016,08,27,15,21,22.60
2016,08,27,15,22,22.70
2016,08,27,15,23,22.80
2016,08,27,15,24,22.80
2016,08,27,15,25,22.90
2016,08,27,15,26,23.00
2016,08,27,15,27,23.10
2016,08,27,15,28,23.10
2016,08,27,15,29,23.00
2016,08,27,15,30,22.90
2016,08,27,15,31,22.90
2016,08,27,15,32,23.00
2016,08,27,15,33,23.00
2016,08,27,15,34,23.10
2016,08,27,15,35,23.10
2016,08,27,15,36,23.10
2016,08,27,15,37,23.20
2016,08,27,15,38,23.20
2016,08,27,15,39,23.30
2016,08,27,15,40,23.30
2016,08,27,15,41,23.20
2016,08,27,15,42,23.20
2016,08,27,15,43,23.30
2016,08,27,15,44,23.30
2016,08,27,15,45,23.30
2016,08,27,15,46,23.30
2016,08,27,15,47,23.40
2016,08,27,15,48,23.40
2016,08,27,15,49,23.40
2016,08,27,15,50,23.40
2016,08,27,15,51,23.40
2016,08,27,15,52,23.40
2016,08,27,15,53,23.50
2016,08,27,15,54,23.50
2016,08,27,15,55,23.60
2016,08,27,15,56,23.60
2016,08,27,15,57,23.60
2016,08,27,15,58,23.50
2016,08,27,15,59,23.40
2016,08,27,16,00,23.50
2016,08,27,16,01,23.50
2016,08,27,16,02,23.50
2016,08,27,16,03,23.60
2016,08,27,16,04,23.60
2016,08,27,16,05,23.60
2016,08,27,16,06,23.70
2016,08,27,16,07,23.70
2016,08,27,16,08,23.70
2016,08,27,16,09,23.70
2016,08,27,16,10,23.60
2016,08,27,16,11,23.50
2016,08,27,16,12,23.50
2016,08,27,16,13,23.40
2016,08,27,16,14,23.40
2016,08,27,16,15,23.30
2016,08,27,16,16,23.20
2016,08,27,16,17,23.10
2016,08,27,16,18,23.00
2016,08,27,16,19,23.00
2016,08,27,16,20,22.90
2016,08,27,16,21,22.80
2016,08,27,16,22,22.80
2016,08,27,16,23,22.80
2016,08,27,16,24,22.70
2016,08,27,16,25,22.70
2016,08,27,16,26,22.60
2016,08,27,16,27,22.60
2016,08,27,16,28,22.60
2016,08,27,16,29,22.60
2016,08,27,16,30,22.60
2016,08,27,16,31,22.70
2016,08,27,16,32,22.80
2016,08,27,16,33,22.80
2016,08,27,16,34,22.80
2016,08,27,16,35,22.70
2016,08,27,16,36,22.70
2016,08,27,16,37,22.70
2016,08,27,16,38,22.70
2016,08,27,16,39,22.60
2016,08,27,16,40,22.50
2016,08,27,16,41,22.50
2016,08,27,16,42,22.60
2016,08,27,16,43,22.60
2016,08,27,16,44,22.60
2016,08,27,16,45,22.70
2016,08,27,16,46,22.80
2016,08,27,16,47,22.90
2016,08,27,16,48,22.90
2016,08,27,16,49,23.00
2016,08,27,16,50,23.00
2016,08,27,16,51,23.00
2016,08,27,16,52,23.10
2016,08,27,16,53,23.10
2016,08,27,16,54,23.10
2016,08,27,16,55,23.20
2016,08,27,16,56,23.20
2016,08,27,16,57,23.20
2016,08,27,16,58,23.30
2016,08,27,16,59,23.30
2016,08,27,17,00,23.30
2016,08,27,17,01,23.30
2016,08,27,17,02,23.30
2016,08,27,17,03,23.30
2016,08,27,17,04,23.30
2016,08,27,17,05,23.20
2016,08,27,17,06,23.20
2016,08,27,17,07,23.10
2016,08,27,17,08,23.00
2016,08,27,17,09,23.00
2016,08,27,17,10,22.80
2016,08,27,17,11,22.80
2016,08,27,17,12,22.70
2016,08,27,17,13,22.60
2016,08,27,17,14,22.40
2016,08,27,17,15,22.30
2016,08,27,17,16,22.30
2016,08,27,17,17,22.30
2016,08,27,17,18,22.20
2016,08,27,17,19,22.20